Temp
-26 -26 -25 -25 -25 -25 -25 -25 -24 -23 -24 -25 -25 -24 -20 -20 -19 -20 -20 -20 -20 -18 -19 -19 -19 -18 -19 -19 -19 -19 -18 -18 -18 -17 -16 -16 -16 -16 -17 -17 -16 -17 -17 -15
-28 -28 -27 -27 -27 -27 -27 -26 -25 -25 -25 -25 -24 -24 -24 -23 -21 -22 -22 -22 -21 -20 -20 -19 -19 -19 -19 -19 -19 -19 -19 -19 -19 -17 -17 -17 -17 -17 -18 -18 -17 -17 -18 -16
-29 -29 -29 -29 -29 -29 -29 -28 -27 -26 -26 -26 -26 -25 -25 -25 -23 -23 -23 -23 -22 -22 -22 -21 -20 -19 -20 -19 -19 -19 -19 -19 -19 -18 -19 -19 -18 -18 -18 -17 -17 -17 -18 -17
-29 -29 -29 -29 -29 -29 -29 -29 -28 -28 -27 -26 -26 -27 -26 -25 -24 -24 -24 -24 -24 -23 -23 -21 -22 -21 -21 -21 -20 -20 -20 -20 -20 -19 -19 -20 -19 -19 -18 -17 -17 -19 -17 -18
-30 -30 -30 -30 -30 -30 -30 -30 -29 -29 -29 -28 -28 -27 -27 -27 -25 -25 -24 -25 -24 -24 -24 -23 -23 -22 -22 -22 -21 -20 -20 -20 -20 -20 -20 -20 -19 -19 -18 -19 -18 -18 -18 -18
-30 -30 -30 -31 -31 -31 -30 -30 -30 -30 -29 -29 -29 -28 -27 -28 -27 -27 -26 -25 -25 -24 -24 -24 -24 -24 -23 -23 -22 -22 -21 -21 -21 -21 -20 -20 -19 -17 -19 -19 -19 -19 -19 -19
-31 -31 -31 -31 -31 -31 -31 -31 -31 -30 -30 -29 -29 -29 -29 -28 -28 -28 -27 -27 -26 -25 -25 -24 -24 -24 -24 -24 -23 -23 -21 -21 -21 -21 -20 -20 -19 -19 -19 -20 -19 -19 -19 -20
-32 -32 -32 -32 -31 -31 -31 -31 -31 -31 -30 -30 -30 -29 -29 -29 -29 -28 -28 -27 -26 -26 -26 -25 -25 -25 -24 -24 -24 -23 -22 -22 -22 -21 -21 -21 -20 -20 -20 -20 -19 -19 -19 -20
-33 -33 -32 -33 -32 -32 -32 -31 -30 -30 -30 -30 -30 -29 -29 -29 -29 -28 -28 -27 -27 -27 -26 -27 -26 -26 -25 -25 -24 -23 -23 -23 -23 -23 -21 -22 -21 -21 -21 -21 -20 -20 -20 -20
-33 -33 -33 -33 -32 -32 -32 -32 -31 -31 -31 -30 -30 -30 -30 -29 -29 -29 -29 -28 -28 -27 -27 -27 -27 -26 -26 -25 -24 -23 -23 -23 -23 -24 -23 -22 -22 -22 -22 -21 -21 -21 -21 -20
-33 -33 -33 -33 -33 -33 -32 -32 -31 -31 -31 -30 -30 -30 -30 -29 -29 -29 -28 -28 -28 -27 -27 -27 -27 -27 -27 -26 -25 -24 -24 -24 -24 -24 -24 -23 -22 -22 -22 -22 -21 -21 -21 -21
-34 -34 -33 -33 -33 -33 -32 -32 -32 -32 -31 -31 -30 -30 -30 -30 -29 -29 -29 -28 -28 -28 -28 -28 -27 -27 -27 -26 -25 -25 -25 -24 -24 -24 -23 -23 -23 -23 -22 -21 -21 -21 -21 -21
-34 -34 -33 -33 -33 -33 -32 -32 -32 -32 -32 -31 -31 -30 -30 -30 -29 -29 -30 -29 -28 -27 -28 -28 -28 -27 -26 -26 -26 -26 -25 -25 -24 -24 -23 -23 -23 -22 -22 -21 -21 -21 -21 -21
-34 -34 -34 -34 -33 -33 -33 -32 -32 -32 -31 -31 -31 -30 -30 -29 -30 -29 -30 -29 -29 -28 -28 -28 -27 -27 -27 -27 -26 -26 -25 -25 -24 -24 -24 -23 -23 -22 -22 -21 -22 -21 -21 -21
-34 -34 -34 -34 -33 -33 -33 -32 -32 -32 -31 -31 -31 -30 -30 -30 -30 -30 -30 -29 -29 -28 -28 -27 -27 -27 -27 -27 -26 -26 -25 -25 -24 -24 -23 -23 -23 -22 -22 -22 -22 -22 -22 -22
-34 -33 -33 -34 -34 -33 -33 -33 -32 -32 -32 -31 -30 -30 -30 -29 -30 -30 -29 -29 -28 -28 -28 -27 -27 -27 -27 -27 -26 -26 -25 -25 -25 -24 -23 -23 -23 -22 -22 -22 -23 -22 -22 -22
-33 -33 -33 -33 -33 -33 -33 -33 -33 -32 -32 -32 -31 -30 -30 -30 -29 -29 -29 -28 -28 -28 -27 -27 -27 -27 -27 -26 -26 -26 -25 -25 -24 -23 -23 -23 -23 -23 -23 -23 -23 -22 -23 -23
-33 -33 -33 -33 -34 -33 -33 -32 -32 -32 -31 -31 -30 -30 -30 -30 -30 -29 -28 -28 -28 -28 -27 -27 -27 -26 -26 -25 -25 -25 -25 -24 -24 -23 -23 -23 -23 -23 -23 -23 -23 -23 -23 -24
-33 -33 -33 -33 -32 -33 -32 -32 -31 -31 -30 -30 -30 -29 -29 -29 -28 -27 -27 -27 -27 -26 -26 -26 -26 -26 -25 -25 -25 -24 -24 -24 -24 -23 -23 -23 -23 -23 -23 -23 -23 -24 -24 -24
-32 -32 -33 -33 -32 -32 -31 -31 -31 -30 -30 -30 -29 -29 -28 -28 -27 -27 -26 -26 -26 -25 -25 -25 -25 -24 -24 -24 -24 -24 -24 -24 -23 -23 -23 -24 -23 -23 -24 -24 -24 -24 -24 -24
-32 -32 -32 -32 -31 -31 -31 -31 -30 -30 -29 -29 -28 -27 -27 -27 -27 -26 -26 -25 -25 -25 -25 -25 -24 -24 -24 -24 -24 -24 -24 -24 -24 -23 -24 -24 -24 -24 -24 -24 -25 -25 -25 -25
-32 -32 -31 -31 -31 -31 -31 -30 -29 -29 -28 -27 -27 -27 -26 -26 -26 -26 -26 -25 -25 -25 -25 -25 -24 -24 -24 -24 -24 -24 -24 -24 -23 -24 -24 -24 -25 -25 -25 -25 -25 -25 -25 -25
-31 -31 -31 -30 -30 -29 -29 -29 -28 -28 -27 -27 -27 -27 -27 -27 -26 -26 -26 -26 -25 -25 -24 -24 -24 -24 -24 -24 -24 -24 -24 -24 -24 -25 -25 -25 -25 -25 -25 -25 -25 -25 -25 -26
-30 -30 -30 -30 -30 -29 -29 -28 -28 -28 -27 -27 -26 -26 -26 -26 -26 -26 -25 -25 -25 -24 -24 -24 -24 -24 -24 -24 -24 -24 -24 -25 -25 -25 -25 -25 -25 -25 -25 -25 -25 -25 -26 -26
-30 -30 -30 -29 -29 -29 -28 -28 -27 -27 -27 -26 -26 -26 -26 -25 -25 -25 -25 -25 -24 -24 -24 -24 -24 -24 -25 -25 -25 -25 -25 -26 -26 -25 -25 -25 -25 -25 -25 -25 -25 -26 -26 -26
-30 -29 -28 -28 -28 -28 -28 -28 -27 -27 -26 -26 -26 -25 -25 -25 -25 -25 -25 -25 -24 -24 -24 -25 -25 -25 -26 -26 -26 -25 -26 -25 -25 -25 -25 -25 -26 -26 -25 -26 -26 -26 -26 -26
-28 -28 -28 -28 -28 -27 -27 -27 -27 -27 -26 -26 -25 -25 -25 -25 -25 -25 -25 -25 -25 -25 -25 -25 -25 -25 -25 -25 -25 -25 -26 -26 -26 -26 -26 -26 -26 -26 -26 -26 -26 -26 -26 -26
Height
5508 5513 5517 5520 5524 5527 5533 5537 5541 5559 5558 5554 5556 5560 5586 5594 5606 5607 5614 5617 5624 5633 5640 5641 5643 5649 5654 5660 5664 5667 5668 5667 5671 5676 5680 5682 5681 5685 5683 5682 5684 5683 5683 5689
5493 5497 5501 5504 5507 5511 5515 5516 5526 5535 5540 5536 5543 5556 5561 5570 5585 5589 5593 5599 5610 5621 5624 5625 5630 5639 5645 5643 5649 5651 5654 5653 5656 5662 5667 5664 5666 5672 5671 5671 5669 5669 5670 5678
5481 5485 5489 5492 5495 5497 5498 5501 5507 5516 5520 5528 5533 5539 5544 5553 5568 5571 5576 5584 5592 5599 5603 5611 5614 5622 5625 5630 5633 5637 5637 5635 5638 5646 5655 5649 5652 5657 5657 5655 5653 5661 5656 5664
5468 5472 5476 5479 5482 5484 5482 5485 5493 5502 5506 5516 5525 5525 5530 5537 5547 5553 5562 5564 5574 5583 5589 5597 5598 5608 5610 5613 5618 5623 5620 5621 5625 5631 5637 5635 5637 5640 5644 5642 5646 5637 5651 5645
5455 5458 5461 5465 5468 5467 5468 5472 5481 5487 5495 5502 5507 5515 5513 5521 5533 5539 5544 5548 5562 5569 5572 5581 5586 5592 5594 5598 5604 5606 5607 5608 5611 5615 5622 5621 5620 5625 5630 5629 5630 5629 5635 5637
5440 5444 5447 5450 5454 5451 5455 5461 5470 5473 5481 5486 5491 5498 5504 5510 5521 5522 5528 5537 5544 5552 5561 5567 5571 5574 5577 5582 5587 5592 5595 5597 5599 5602 5605 5603 5601 5617 5620 5621 5620 5621 5618 5627
5426 5429 5432 5435 5438 5439 5443 5451 5458 5460 5465 5472 5478 5486 5491 5496 5503 5511 5515 5520 5526 5543 5543 5547 5553 5557 5560 5565 5575 5580 5584 5585 5584 5589 5590 5587 5601 5601 5605 5604 5609 5608 5609 5610
5410 5413 5417 5420 5424 5426 5431 5438 5443 5448 5452 5461 5467 5475 5481 5485 5489 5495 5503 5507 5514 5523 5529 5534 5539 5541 5545 5554 5559 5566 5570 5574 5574 5574 5575 5578 5589 5593 5594 5590 5597 5596 5596 5596
5397 5401 5404 5407 5411 5415 5422 5429 5432 5441 5442 5446 5457 5463 5471 5477 5481 5486 5494 5497 5502 5509 5515 5520 5519 5524 5534 5542 5547 5553 5554 5558 5558 5563 5562 5566 5577 5581 5581 5579 5585 5584 5584 5584
5389 5392 5396 5400 5404 5409 5416 5421 5427 5431 5435 5442 5448 5457 5463 5469 5473 5480 5484 5488 5493 5498 5502 5505 5510 5514 5522 5526 5535 5544 5544 5546 5547 5550 5549 5553 5565 5572 5571 5573 5580 5577 5577 5577
5382 5386 5390 5394 5398 5404 5409 5414 5419 5423 5429 5435 5441 5449 5456 5461 5468 5474 5479 5482 5487 5490 5490 5495 5502 5506 5513 5517 5524 5527 5536 5535 5538 5541 5541 5545 5558 5559 5564 5566 5564 5566 5568 5568
5377 5382 5386 5389 5393 5399 5404 5409 5413 5416 5423 5429 5434 5443 5451 5457 5461 5466 5470 5474 5477 5481 5483 5488 5494 5500 5507 5510 5512 5515 5521 5527 5530 5532 5535 5539 5545 5547 5552 5555 5555 5556 5557 5557
5373 5377 5380 5384 5388 5393 5398 5403 5407 5411 5416 5423 5431 5439 5443 5450 5453 5458 5463 5466 5470 5473 5475 5481 5485 5489 5497 5496 5503 5506 5511 5514 5517 5520 5529 5530 5535 5538 5540 5542 5545 5548 5546 5545
5369 5372 5375 5378 5383 5388 5393 5399 5403 5407 5412 5419 5428 5433 5440 5442 5449 5454 5457 5459 5463 5462 5469 5471 5476 5483 5487 5491 5494 5497 5503 5505 5510 5513 5516 5519 5523 5528 5529 5531 5533 5535 5536 5535
5365 5368 5371 5375 5380 5387 5391 5396 5401 5405 5411 5417 5423 5428 5434 5441 5446 5451 5452 5455 5457 5458 5460 5464 5468 5474 5479 5483 5485 5491 5494 5498 5500 5505 5505 5509 5513 5515 5518 5521 5523 5525 5526 5527
5361 5365 5368 5372 5378 5383 5388 5393 5398 5402 5407 5415 5418 5424 5431 5436 5440 5444 5447 5451 5452 5455 5459 5462 5465 5470 5472 5474 5478 5486 5488 5492 5493 5496 5499 5501 5504 5507 5510 5512 5515 5517 5519 5519
5359 5362 5366 5371 5376 5381 5386 5391 5396 5401 5404 5409 5414 5422 5428 5431 5435 5439 5442 5445 5448 5452 5453 5455 5460 5464 5464 5466 5469 5477 5481 5485 5489 5489 5490 5493 5496 5500 5503 5507 5509 5509 5509 5508
5359 5363 5366 5370 5375 5380 5386 5391 5396 5400 5404 5408 5415 5422 5426 5429 5432 5435 5439 5441 5442 5445 5448 5451 5454 5455 5458 5457 5464 5470 5475 5478 5481 5484 5486 5488 5491 5495 5498 5500 5500 5501 5501 5502
5360 5363 5367 5370 5376 5382 5387 5392 5397 5401 5406 5409 5415 5420 5424 5427 5430 5433 5435 5437 5438 5441 5443 5446 5450 5451 5450 5457 5461 5465 5470 5472 5475 5477 5481 5484 5487 5490 5491 5492 5494 5495 5496 5497
5361 5364 5368 5373 5377 5382 5388 5395 5399 5402 5406 5411 5415 5418 5421 5425 5427 5430 5432 5433 5435 5438 5441 5442 5443 5446 5450 5454 5457 5461 5464 5468 5471 5474 5477 5480 5482 5484 5486 5487 5489 5491 5491 5490
5363 5366 5372 5377 5382 5387 5393 5397 5402 5406 5408 5411 5415 5418 5421 5423 5424 5426 5429 5432 5435 5437 5439 5440 5441 5444 5447 5450 5454 5458 5461 5465 5468 5470 5473 5476 5478 5480 5482 5484 5485 5486 5485 5483
5369 5372 5377 5381 5386 5391 5396 5399 5402 5406 5409 5413 5416 5417 5419 5421 5423 5427 5430 5433 5435 5436 5437 5438 5439 5442 5444 5447 5451 5455 5459 5462 5464 5467 5469 5473 5476 5477 5479 5479 5480 5479 5478 5477
5373 5376 5381 5384 5390 5393 5397 5401 5406 5409 5412 5414 5417 5419 5421 5424 5427 5429 5431 5433 5434 5435 5435 5436 5437 5437 5440 5444 5448 5452 5456 5458 5460 5464 5468 5470 5472 5473 5474 5474 5473 5472 5471 5469
5376 5380 5385 5388 5393 5397 5401 5405 5408 5412 5415 5417 5419 5422 5424 5426 5428 5429 5431 5432 5433 5433 5434 5435 5435 5436 5438 5441 5444 5448 5451 5454 5459 5462 5464 5466 5468 5468 5468 5467 5467 5465 5464 5462
5379 5382 5387 5392 5397 5401 5405 5408 5412 5415 5417 5419 5422 5424 5427 5428 5429 5429 5430 5431 5431 5432 5433 5433 5434 5435 5437 5439 5442 5446 5450 5454 5457 5459 5461 5462 5462 5462 5462 5461 5460 5459 5457 5455
5383 5387 5392 5397 5402 5406 5408 5410 5413 5416 5418 5420 5423 5425 5426 5427 5427 5428 5428 5428 5429 5430 5430 5432 5433 5435 5438 5441 5443 5447 5450 5452 5454 5456 5456 5457 5457 5457 5456 5455 5454 5452 5450 5447
5388 5394 5398 5402 5406 5408 5410 5412 5415 5416 5418 5420 5422 5424 5424 5425 5426 5426 5426 5427 5427 5428 5429 5431 5434 5436 5439 5442 5444 5446 5448 5450 5451 5452 5452 5452 5452 5452 5450 5449 5447 5445 5442 5439
Wind_Speed
62 64 65 64 65 66 67 70 72 70 69 72 74 76 74 69 64 61 61 63 62 58 56 55 55 55 49 50 53 51 52 55 57 58 59 60 63 62 61 61 62 60 58 54
50 52 53 57 56 56 56 62 64 66 65 70 74 72 71 71 69 66 64 62 59 56 60 61 57 52 47 51 50 56 58 59 57 59 58 61 61 58 54 58 57 56 56 49
42 44 45 46 47 47 50 52 57 60 60 60 54 64 69 69 66 68 65 66 64 63 62 60 60 63 63 67 66 63 62 63 63 60 54 57 54 51 52 57 57 51 54 54
43 44 47 48 49 50 52 53 54 52 52 56 46 47 56 62 67 69 64 64 62 60 64 65 65 60 58 54 47 48 55 53 52 49 48 54 57 53 55 53 53 57 59 59
44 43 44 48 51 51 52 53 52 53 49 48 48 45 49 48 55 61 66 66 61 60 60 59 59 61 62 61 53 56 49 51 51 44 47 53 56 53 53 62 56 60 58 52
46 45 45 46 47 52 51 51 48 47 44 48 53 57 54 52 51 51 57 59 59 63 61 60 59 60 63 63 63 60 49 52 62 57 51 52 58 50 54 52 57 50 57 40
46 45 45 46 47 47 49 48 47 49 48 46 48 47 45 49 48 48 49 49 52 55 59 65 62 62 63 63 61 56 55 46 48 56 55 56 46 44 48 51 45 43 45 41
40 40 42 45 48 51 50 44 44 43 43 52 47 41 37 32 43 58 45 47 47 48 51 53 59 65 65 59 60 63 67 62 48 48 42 40 39 37 35 38 41 43 46 39
33 31 32 32 30 32 28 31 29 30 24 46 49 45 50 29 34 45 35 37 44 49 52 52 57 57 60 62 60 60 69 70 66 50 54 48 32 27 28 28 30 30 28 27
29 29 26 27 32 38 28 29 38 46 29 41 48 38 47 42 37 33 33 44 48 46 40 52 48 50 54 62 63 62 64 64 65 63 61 60 50 39 41 33 27 24 26 32
24 23 24 29 34 31 32 28 27 34 39 41 50 43 26 34 37 29 33 34 37 50 51 46 50 51 43 51 52 56 59 60 61 61 61 63 60 57 51 39 35 31 33 36
26 22 21 31 32 32 29 29 27 25 35 33 42 49 42 29 31 32 36 36 37 40 49 51 48 45 33 33 47 48 49 49 49 53 50 48 47 43 38 35 35 35 37 40
25 23 22 26 33 30 28 27 26 30 31 33 34 31 36 33 30 30 31 30 38 24 33 41 39 43 39 34 24 34 37 39 42 42 42 41 35 34 36 41 43 39 37 33
23 20 23 29 32 29 28 27 26 25 29 39 36 40 37 30 26 29 32 34 41 35 24 26 38 39 39 40 37 36 33 28 30 32 33 35 37 36 38 40 30 34 32 31
19 18 19 28 30 30 27 28 27 29 32 45 38 40 37 34 31 30 29 33 33 41 39 24 23 30 35 36 35 31 34 36 30 25 22 25 32 38 43 35 29 30 27 27
20 19 19 23 25 27 28 26 26 23 26 43 46 43 43 37 31 27 29 36 33 35 40 38 35 34 37 36 33 32 33 26 33 25 22 28 30 30 28 27 25 24 25 27
15 17 18 21 20 21 19 18 17 16 15 15 26 41 39 36 23 24 29 41 30 31 32 32 30 33 41 35 29 26 27 23 24 18 20 23 19 18 18 20 21 21 22 21
15 16 17 17 17 22 18 16 13 12 10 15 28 29 30 27 27 25 25 25 33 34 34 32 28 26 32 30 24 26 26 20 11 16 18 18 16 15 17 17 18 20 20 20
17 17 16 17 18 18 17 17 13 16 18 20 26 24 27 27 18 15 21 23 26 23 25 27 29 25 25 23 23 16 19 14 14 16 15 14 14 14 14 16 18 19 19 21
18 19 16 17 22 23 26 22 18 21 19 20 21 23 21 16 11 11 17 17 17 12 15 15 20 24 25 21 19 20 18 17 15 21 15 14 13 13 15 15 16 17 19 22
27 29 25 30 34 29 23 15 9 10 5 12 12 13 13 12 11 5 11 13 11 9 10 11 9 6 11 16 17 22 19 20 19 15 12 12 13 13 14 13 15 19 21 22
26 28 38 37 32 25 18 15 16 13 11 13 12 10 10 8 6 6 9 10 11 13 11 14 13 13 12 14 16 17 14 18 18 15 13 13 13 12 13 14 18 19 19 20
37 33 30 32 32 26 23 20 13 13 13 13 12 14 14 8 8 9 12 14 14 14 14 14 12 11 14 14 17 18 16 16 15 15 15 13 12 12 13 16 16 17 18 19
40 42 36 32 26 20 19 19 16 13 14 15 15 10 7 8 11 12 11 13 11 8 8 9 8 5 10 14 17 21 21 18 16 14 12 12 12 13 14 15 16 17 17 19
42 37 31 25 23 19 20 16 15 12 12 13 12 10 7 3 4 6 7 7 8 8 6 6 7 9 13 18 18 16 15 14 13 13 12 12 13 14 15 16 17 18 19 20
32 30 25 23 19 16 15 14 12 7 9 8 9 6 1 7 3 5 5 7 8 7 7 7 11 14 15 16 16 15 14 13 13 13 13 14 15 16 18 19 19 19 20 22
26 24 21 21 18 16 16 12 8 5 4 5 6 6 8 10 4 4 7 9 10 9 10 13 14 14 15 14 14 14 13 12 12 13 13 13 15 17 19 19 20 21 23 25
Wind_Direction
252 252 252 252 252 252 251 250 249 245 244 245 244 249 253 253 250 249 246 243 240 242 241 247 248 251 252 253 252 244 243 248 249 252 253 255 259 261 259 259 262 259 263 272
252 251 252 252 252 251 250 250 250 246 244 246 249 248 248 249 245 245 247 248 246 245 240 238 238 239 240 244 243 249 254 255 254 255 258 259 260 263 263 267 253 256 265 278
249 249 248 248 249 250 251 250 248 246 244 246 251 248 246 246 245 246 245 246 245 242 243 243 246 246 244 245 250 257 257 257 255 258 261 261 258 257 259 259 249 257 269 273
253 252 251 250 251 251 251 251 250 248 247 243 233 250 247 245 241 243 243 244 243 245 248 245 244 243 244 247 247 259 258 259 262 261 259 257 258 258 252 260 257 260 271 265
255 257 254 249 249 248 248 251 252 250 248 244 239 237 249 241 239 238 239 241 239 239 242 246 248 243 242 243 246 241 248 260 255 257 254 250 252 249 249 254 261 268 269 266
255 257 256 250 248 248 248 246 248 248 245 242 239 227 232 242 244 243 240 236 236 238 239 242 243 244 244 246 243 245 251 257 255 258 258 252 251 249 254 262 260 267 258 262
258 256 252 249 246 243 245 249 249 248 247 246 242 239 244 238 231 236 240 235 234 235 237 237 238 238 241 240 240 239 246 237 235 245 249 257 258 256 255 260 261 260 259 271
255 251 249 249 248 248 250 252 248 250 246 235 238 220 215 239 231 235 240 229 231 227 233 236 238 238 240 240 240 237 240 247 260 241 244 253 253 255 262 261 258 264 271 270
249 246 244 236 230 213 230 221 232 222 237 236 219 228 224 233 229 225 225 215 228 221 224 238 233 236 237 237 239 237 241 247 253 261 253 254 253 262 263 269 271 276 262 254
238 231 222 213 212 211 214 215 221 222 214 219 224 230 231 240 219 218 223 223 222 211 219 232 231 238 237 239 239 237 244 249 253 260 265 258 258 260 273 272 290 272 270 276
222 216 216 212 214 221 227 215 217 220 219 222 220 219 227 225 226 238 236 235 232 227 231 231 232 238 242 242 241 244 244 252 255 260 265 267 263 275 278 281 275 258 270 271
217 223 217 215 214 215 214 221 228 220 224 224 221 226 226 235 232 234 230 227 232 235 233 235 236 237 241 254 242 243 244 250 253 255 264 267 267 271 267 267 266 262 265 274
213 219 232 229 218 215 220 226 228 233 230 230 226 229 219 220 226 232 232 232 212 196 235 236 234 231 221 241 229 241 241 245 248 253 256 257 252 256 255 254 256 261 271 272
216 225 235 215 212 213 216 218 223 229 232 232 236 220 213 214 228 241 230 221 217 209 207 227 233 234 230 232 236 234 233 231 233 241 249 245 244 250 252 248 247 263 264 265
218 225 214 204 205 206 209 216 223 234 233 231 231 216 214 228 231 231 226 213 221 228 226 229 220 223 239 239 236 230 226 240 237 232 244 240 232 232 238 245 251 255 260 268
228 223 208 197 199 207 212 211 224 222 221 222 225 225 228 230 236 228 234 214 226 231 234 239 242 244 245 243 238 231 240 246 245 255 261 240 239 243 243 239 242 253 261 268
203 195 192 199 192 189 191 191 192 199 210 218 215 211 219 230 234 229 228 219 228 234 232 232 243 247 244 240 235 227 221 225 234 274 236 233 228 228 235 244 249 260 267 269
172 175 176 184 188 186 167 166 165 179 190 214 214 219 228 230 243 243 242 237 234 232 228 240 254 247 244 230 208 205 214 219 249 263 229 234 230 235 240 253 266 267 265 265
173 165 168 172 167 164 167 160 168 180 180 187 205 215 220 226 216 220 228 232 230 241 244 245 248 245 217 197 212 213 220 225 231 270 245 233 238 241 256 262 260 259 264 271
157 157 148 158 163 164 152 152 177 179 191 192 192 201 208 209 241 201 221 229 226 229 228 242 252 208 192 188 222 220 211 215 240 249 244 234 234 242 245 246 252 263 271 278
149 135 130 145 141 138 136 145 154 164 170 182 177 185 209 207 198 177 189 186 216 212 211 218 222 216 216 211 214 208 215 225 240 240 226 229 229 228 236 250 264 269 275 280
150 143 152 146 147 158 157 153 168 169 154 154 193 189 151 129 157 205 204 209 240 257 256 245 256 245 228 205 201 201 210 222 221 221 213 215 217 233 249 261 268 276 281 286
154 155 156 160 159 153 147 150 144 143 131 119 110 130 136 132 158 214 212 217 228 231 231 229 236 236 217 209 201 202 215 220 208 197 200 217 232 246 259 269 278 284 284 289
159 153 156 162 162 146 143 136 139 143 145 134 112 105 112 159 190 199 208 216 229 235 230 225 234 211 198 198 198 201 194 182 188 199 214 226 240 256 266 273 278 283 286 290
171 175 179 169 158 154 143 142 147 134 147 144 126 128 136 133 201 216 228 238 241 237 254 239 210 192 186 176 170 169 173 185 197 209 222 237 252 260 269 273 276 279 284 289
172 167 163 148 144 145 158 165 164 142 137 147 153 148 85 4 290 217 243 245 241 255 252 209 176 164 165 172 174 180 187 195 206 222 238 249 258 267 271 273 275 279 283 286
153 141 137 147 155 160 160 169 185 186 192 207 222 258 292 316 301 265 243 229 239 234 204 178 175 175 173 181 191 192 198 212 228 240 251 261 268 271 273 276 279 283 286 290